Tabellarische Ansicht des 17.2.2010


Die einzelnen Werte des Tages

Uhrzeit Temperatur Luftdruck Luftfeuchte Wind Hi-Wind Taupunkt THW Index Wind Chill Heat Index Solar- strahlung Regen

00:00

-4.7 C

999.6 hpa

81 %

6.4 km/h aus 116

11.3 km/h aus ESE

-7.5 C

-7.8 C

-7.6 C

-4.9 C

0 W/m

0.00 mm

00:05

-4.7 C

999.6 hpa

81 %

6.4 km/h aus 115

9.7 km/h aus ESE

-7.5 C

-7.8 C

-7.6 C

-4.9 C

0 W/m

0.00 mm

00:10

-4.8 C

999.6 hpa

81 %

6.4 km/h aus 115

11.3 km/h aus ESE

-7.5 C

-7.9 C

-7.7 C

-4.9 C

0 W/m

0.00 mm

00:15

-4.8 C

999.6 hpa

80 %

6.4 km/h aus 118

14.5 km/h aus E

-7.7 C

-7.9 C

-7.7 C

-4.9 C

0 W/m

0.00 mm

00:20

-4.8 C

999.6 hpa

81 %

8.0 km/h aus 117

16.1 km/h aus ESE

-7.5 C

-8.5 C

-8.3 C

-4.9 C

0 W/m

0.00 mm

00:25

-4.7 C

999.6 hpa

81 %

6.4 km/h aus 117

11.3 km/h aus ESE

-7.5 C

-7.8 C

-7.6 C

-4.9 C

0 W/m

0.00 mm

00:30

-4.8 C

999.5 hpa

80 %

8.0 km/h aus 115

16.1 km/h aus ESE

-7.7 C

-8.5 C

-8.3 C

-4.9 C

0 W/m

0.00 mm

00:35

-4.8 C

999.5 hpa

80 %

6.4 km/h aus 116

11.3 km/h aus E

-7.7 C

-7.9 C

-7.7 C

-4.9 C

0 W/m

0.00 mm

00:40

-4.8 C

999.5 hpa

80 %

6.4 km/h aus 115

16.1 km/h aus ESE

-7.8 C

-7.9 C

-7.8 C

-5.0 C

0 W/m

0.00 mm

00:45

-4.8 C

999.5 hpa

80 %

4.8 km/h aus 117

9.7 km/h aus E

-7.8 C

-7.1 C

-6.9 C

-5.0 C

0 W/m

0.00 mm

00:50

-4.8 C

999.5 hpa

80 %

3.2 km/h aus 114

8.0 km/h aus E

-7.7 C

-6.0 C

-5.8 C

-4.9 C

0 W/m

0.00 mm

00:55

-4.8 C

999.5 hpa

81 %

4.8 km/h aus 117

9.7 km/h aus E

-7.5 C

-7.1 C

-6.9 C

-4.9 C

0 W/m

0.00 mm

01:00

-4.8 C

999.3 hpa

80 %

4.8 km/h aus 116

8.0 km/h aus E

-7.7 C

-7.1 C

-6.9 C

-4.9 C

0 W/m

0.00 mm

01:05

-4.8 C

999.3 hpa

80 %

4.8 km/h aus 115

9.7 km/h aus E

-7.8 C

-7.1 C

-6.9 C

-5.0 C

0 W/m

0.00 mm

01:10

-4.8 C

999.3 hpa

80 %

6.4 km/h aus 117

11.3 km/h aus ESE

-7.7 C

-7.9 C

-7.7 C

-4.9 C

0 W/m

0.00 mm

01:15

-4.8 C

999.1 hpa

80 %

4.8 km/h aus 116

9.7 km/h aus ENE

-7.7 C

-7.1 C

-6.9 C

-4.9 C

0 W/m

0.00 mm

01:20

-4.9 C

999.1 hpa

80 %

3.2 km/h aus 117

11.3 km/h aus ENE

-7.8 C

-6.1 C

-5.9 C

-5.1 C

0 W/m

0.00 mm

01:25

-5.1 C

999.1 hpa

80 %

4.8 km/h aus 117

6.4 km/h aus NE

-8.0 C

-7.4 C

-7.3 C

-5.3 C

0 W/m

0.00 mm

01:30

-5.1 C

999.0 hpa

81 %

3.2 km/h aus 117

8.0 km/h aus ENE

-7.9 C

-6.3 C

-6.2 C

-5.3 C

0 W/m

0.00 mm

01:35

-5.1 C

999.0 hpa

81 %

3.2 km/h aus 116

6.4 km/h aus ENE

-7.8 C

-6.3 C

-6.1 C

-5.2 C

0 W/m

0.00 mm

01:40

-5.1 C

999.0 hpa

81 %

3.2 km/h aus 117

8.0 km/h aus ENE

-7.9 C

-6.3 C

-6.2 C

-5.3 C

0 W/m

0.00 mm

01:45

-5.1 C

998.8 hpa

81 %

4.8 km/h aus 116

11.3 km/h aus ENE

-7.9 C

-7.4 C

-7.3 C

-5.3 C

0 W/m

0.00 mm

01:50

-5.1 C

998.8 hpa

81 %

6.4 km/h aus 117

11.3 km/h aus E

-7.8 C

-8.2 C

-8.0 C

-5.2 C

0 W/m

0.00 mm

01:55

-5.1 C

998.8 hpa

80 %

4.8 km/h aus 116

11.3 km/h aus E

-8.0 C

-7.4 C

-7.2 C

-5.2 C

0 W/m

0.00 mm

02:00

-5.1 C

998.6 hpa

80 %

4.8 km/h aus 117

9.7 km/h aus E

-8.0 C

-7.4 C

-7.3 C

-5.3 C

0 W/m

0.00 mm

02:05

-5.1 C

998.6 hpa

80 %

4.8 km/h aus 115

9.7 km/h aus E

-8.0 C

-7.4 C

-7.3 C

-5.3 C

0 W/m

0.00 mm

02:10

-5.1 C

998.6 hpa

80 %

6.4 km/h aus 116

11.3 km/h aus E

-8.0 C

-8.3 C

-8.1 C

-5.3 C

0 W/m

0.00 mm

02:15

-5.2 C

998.6 hpa

80 %

3.2 km/h aus 117

8.0 km/h aus E

-8.1 C

-6.4 C

-6.3 C

-5.3 C

0 W/m

0.00 mm

02:20

-5.4 C

998.6 hpa

80 %

0.0 km/h aus 116

3.2 km/h aus E

-8.3 C

-5.5 C

-5.4 C

-5.5 C

0 W/m

0.00 mm

02:25

-5.8 C

998.6 hpa

81 %

1.6 km/h aus 117

3.2 km/h aus E

-8.6 C

-5.9 C

-5.8 C

-5.9 C

0 W/m

0.00 mm

02:30

-6.2 C

998.5 hpa

81 %

3.2 km/h aus 117

6.4 km/h aus E

-8.9 C

-7.4 C

-7.3 C

-6.3 C

0 W/m

0.00 mm

02:35

-6.2 C

998.5 hpa

82 %

3.2 km/h aus 115

6.4 km/h aus E

-8.8 C

-7.5 C

-7.4 C

-6.3 C

0 W/m

0.00 mm

02:40

-6.2 C

998.5 hpa

83 %

3.2 km/h aus 115

8.0 km/h aus E

-8.6 C

-7.5 C

-7.4 C

-6.3 C

0 W/m

0.00 mm

02:45

-6.3 C

998.3 hpa

83 %

1.6 km/h aus 116

3.2 km/h aus E

-8.7 C

-6.4 C

-6.3 C

-6.4 C

0 W/m

0.00 mm

02:50

-6.4 C

998.3 hpa

83 %

0.0 km/h aus 117

3.2 km/h aus E

-8.9 C

-6.6 C

-6.4 C

-6.6 C

0 W/m

0.00 mm

02:55

-6.6 C

998.3 hpa

83 %

1.6 km/h aus 116

3.2 km/h aus E

-9.0 C

-6.7 C

-6.6 C

-6.7 C

0 W/m

0.00 mm

03:00

-6.7 C

998.1 hpa

83 %

1.6 km/h aus 117

4.8 km/h aus E

-9.1 C

-6.8 C

-6.7 C

-6.8 C

0 W/m

0.00 mm

03:05

-6.8 C

998.1 hpa

83 %

1.6 km/h aus 117

3.2 km/h aus E

-9.2 C

-6.9 C

-6.8 C

-6.9 C

0 W/m

0.00 mm

03:10

-6.9 C

998.1 hpa

84 %

1.6 km/h aus 116

3.2 km/h aus E

-9.1 C

-7.0 C

-6.9 C

-7.0 C

0 W/m

0.00 mm

03:15

-7.1 C

998.0 hpa

84 %

3.2 km/h aus 117

4.8 km/h aus E

-9.3 C

-8.4 C

-8.3 C

-7.2 C

0 W/m

0.00 mm

03:20

-7.3 C

998.0 hpa

84 %

3.2 km/h aus 116

6.4 km/h aus E

-9.5 C

-8.7 C

-8.6 C

-7.4 C

0 W/m

0.00 mm

03:25

-7.5 C

998.0 hpa

84 %

3.2 km/h aus 117

6.4 km/h aus E

-9.7 C

-8.9 C

-8.8 C

-7.6 C

0 W/m

0.00 mm

03:30

-7.8 C

997.7 hpa

85 %

1.6 km/h aus 115

4.8 km/h aus E

-9.9 C

-7.9 C

-7.8 C

-7.9 C

0 W/m

0.00 mm

03:35

-7.8 C

997.7 hpa

85 %

1.6 km/h aus 118

4.8 km/h aus E

-9.9 C

-7.9 C

-7.8 C

-7.9 C

0 W/m

0.00 mm

03:40

-7.9 C

997.7 hpa

86 %

0.0 km/h aus 117

1.6 km/h aus E

-9.9 C

-8.1 C

-7.9 C

-8.1 C

0 W/m

0.00 mm

03:45

-8.2 C

997.6 hpa

86 %

1.6 km/h aus 116

3.2 km/h aus E

-10.1 C

-8.2 C

-8.2 C

-8.2 C

0 W/m

0.00 mm

03:50

-8.6 C

997.6 hpa

86 %

0.0 km/h aus 115

1.6 km/h aus E

-10.5 C

-8.6 C

-8.6 C

-8.6 C

0 W/m

0.00 mm

03:55

-8.9 C

997.6 hpa

86 %

0.0 km/h aus 115

0.0 km/h aus ---

-10.8 C

-8.9 C

-8.9 C

-8.9 C

0 W/m

0.00 mm

04:00

-9.1 C

997.6 hpa

87 %

0.0 km/h aus 117

1.6 km/h aus E

-10.8 C

-9.1 C

-9.1 C

-9.1 C

0 W/m

0.00 mm

04:05

-8.9 C

997.6 hpa

88 %

1.6 km/h aus 117

3.2 km/h aus E

-10.6 C

-9.0 C

-8.9 C

-9.0 C

0 W/m

0.00 mm

04:10

-8.9 C

997.6 hpa

88 %

1.6 km/h aus 116

3.2 km/h aus E

-10.5 C

-8.9 C

-8.9 C

-8.9 C

0 W/m

0.00 mm

04:15

-8.9 C

997.5 hpa

88 %

1.6 km/h aus 116

3.2 km/h aus E

-10.5 C

-8.9 C

-8.9 C

-8.9 C

0 W/m

0.00 mm

04:20

-9.0 C

997.5 hpa

88 %

1.6 km/h aus 117

4.8 km/h aus E

-10.6 C

-9.1 C

-9.0 C

-9.1 C

0 W/m

0.00 mm

04:25

-9.2 C

997.5 hpa

88 %

3.2 km/h aus 115

4.8 km/h aus E

-10.8 C

-10.7 C

-10.7 C

-9.2 C

0 W/m

0.00 mm

04:30

-9.2 C

997.4 hpa

88 %

3.2 km/h aus 116

6.4 km/h aus E

-10.8 C

-10.7 C

-10.7 C

-9.2 C

0 W/m

0.00 mm

04:35

-9.1 C

997.4 hpa

89 %

1.6 km/h aus 115

4.8 km/h aus E

-10.5 C

-9.1 C

-9.1 C

-9.1 C

0 W/m

0.00 mm

04:40

-9.0 C

997.4 hpa

88 %

1.6 km/h aus 118

3.2 km/h aus E

-10.6 C

-9.1 C

-9.0 C

-9.1 C

0 W/m

0.00 mm

04:45

-9.1 C

997.3 hpa

88 %

1.6 km/h aus 116

3.2 km/h aus E

-10.7 C

-9.2 C

-9.1 C

-9.2 C

0 W/m

0.00 mm

04:50

-9.2 C

997.3 hpa

88 %

1.6 km/h aus 117

4.8 km/h aus E

-10.8 C

-9.3 C

-9.2 C

-9.3 C

0 W/m

0.00 mm

04:55

-9.3 C

997.3 hpa

88 %

1.6 km/h aus 116

4.8 km/h aus E

-10.9 C

-9.3 C

-9.3 C

-9.3 C

0 W/m

0.00 mm

05:00

-9.2 C

997.1 hpa

89 %

1.6 km/h aus 116

4.8 km/h aus E

-10.6 C

-9.2 C

-9.2 C

-9.2 C

0 W/m

0.00 mm

05:05

-9.1 C

997.1 hpa

89 %

1.6 km/h aus 117

6.4 km/h aus E

-10.6 C

-9.2 C

-9.1 C

-9.2 C

0 W/m

0.00 mm

05:10

-9.1 C

997.1 hpa

89 %

3.2 km/h aus 115

6.4 km/h aus E

-10.5 C

-10.6 C

-10.5 C

-9.1 C

0 W/m

0.00 mm

05:15

-9.1 C

997.1 hpa

89 %

3.2 km/h aus 114

6.4 km/h aus E

-10.5 C

-10.6 C

-10.5 C

-9.1 C

0 W/m

0.00 mm

05:20

-9.2 C

997.1 hpa

89 %

3.2 km/h aus 117

4.8 km/h aus E

-10.6 C

-10.7 C

-10.7 C

-9.2 C

0 W/m

0.00 mm

05:25

-9.1 C

997.1 hpa

89 %

1.6 km/h aus 116

4.8 km/h aus E

-10.5 C

-9.1 C

-9.1 C

-9.1 C

0 W/m

0.00 mm

05:30

-9.1 C

997.0 hpa

89 %

1.6 km/h aus 117

6.4 km/h aus E

-10.5 C

-9.1 C

-9.1 C

-9.1 C

0 W/m

0.00 mm

05:35

-9.1 C

997.0 hpa

89 %

1.6 km/h aus 116

4.8 km/h aus E

-10.6 C

-9.2 C

-9.1 C

-9.2 C

0 W/m

0.00 mm

05:40

-9.2 C

997.0 hpa

89 %

3.2 km/h aus 116

6.4 km/h aus E

-10.6 C

-10.7 C

-10.7 C

-9.2 C

0 W/m

0.00 mm

05:45

-9.2 C

997.0 hpa

88 %

3.2 km/h aus 117

4.8 km/h aus E

-10.8 C

-10.8 C

-10.7 C

-9.3 C

0 W/m

0.00 mm

05:50

-9.4 C

997.0 hpa

88 %

1.6 km/h aus 116

3.2 km/h aus E

-11.0 C

-9.4 C

-9.4 C

-9.4 C

0 W/m

0.00 mm

05:55

-9.5 C

997.0 hpa

88 %

1.6 km/h aus 114

4.8 km/h aus E

-11.1 C

-9.6 C

-9.5 C

-9.6 C

0 W/m

0.00 mm

06:00

-9.6 C

996.9 hpa

88 %

1.6 km/h aus 117

3.2 km/h aus E

-11.2 C

-9.7 C

-9.6 C

-9.7 C

0 W/m

0.00 mm

06:05

-9.7 C

996.9 hpa

88 %

1.6 km/h aus 116

4.8 km/h aus E

-11.3 C

-9.7 C

-9.7 C

-9.7 C

0 W/m

0.00 mm

06:10

-9.7 C

996.9 hpa

89 %

3.2 km/h aus 117

6.4 km/h aus E

-11.1 C

-11.3 C

-11.2 C

-9.7 C

0 W/m

0.00 mm

06:15

-9.7 C

996.5 hpa

89 %

3.2 km/h aus 116

8.0 km/h aus ENE

-11.1 C

-11.3 C

-11.2 C

-9.7 C

0 W/m

0.00 mm

06:20

-9.6 C

996.5 hpa

89 %

3.2 km/h aus 117

6.4 km/h aus ENE

-11.1 C

-11.2 C

-11.1 C

-9.7 C

0 W/m

0.00 mm

06:25

-9.7 C

996.5 hpa

89 %

3.2 km/h aus 116

6.4 km/h aus ENE

-11.1 C

-11.3 C

-11.2 C

-9.7 C

0 W/m

0.00 mm

06:30

-9.7 C

996.5 hpa

89 %

1.6 km/h aus 117

4.8 km/h aus ENE

-11.1 C

-9.7 C

-9.7 C

-9.7 C

0 W/m

0.00 mm

06:35

-9.7 C

996.5 hpa

89 %

1.6 km/h aus 115

4.8 km/h aus ENE

-11.2 C

-9.8 C

-9.7 C

-9.8 C

0 W/m

0.00 mm

06:40

-9.8 C

996.5 hpa

89 %

1.6 km/h aus 117

3.2 km/h aus ENE

-11.2 C

-9.8 C

-9.8 C

-9.8 C

0 W/m

0.00 mm

06:45

-9.9 C

996.5 hpa

89 %

0.0 km/h aus 116

3.2 km/h aus ENE

-11.4 C

-10.0 C

-9.9 C

-10.0 C

0 W/m

0.00 mm

06:50

-10.1 C

996.5 hpa

89 %

0.0 km/h aus 115

3.2 km/h aus ENE

-11.6 C

-10.2 C

-10.1 C

-10.2 C

0 W/m

0.00 mm

06:55

-10.1 C

996.5 hpa

89 %

1.6 km/h aus 118

3.2 km/h aus ENE

-11.6 C

-10.2 C

-10.1 C

-10.2 C

0 W/m

0.00 mm

07:00

-10.2 C

996.4 hpa

89 %

1.6 km/h aus 116

4.8 km/h aus ENE

-11.6 C

-10.2 C

-10.2 C

-10.2 C

0 W/m

0.00 mm

07:05

-10.1 C

996.4 hpa

89 %

1.6 km/h aus 117

4.8 km/h aus ENE

-11.5 C

-10.1 C

-10.1 C

-10.1 C

0 W/m

0.00 mm

07:10

-10.0 C

996.4 hpa

89 %

1.6 km/h aus 117

3.2 km/h aus ENE

-11.5 C

-10.1 C

-10.0 C

-10.1 C

0 W/m

0.00 mm

07:15

-10.1 C

996.4 hpa

89 %

1.6 km/h aus 117

4.8 km/h aus ENE

-11.6 C

-10.2 C

-10.1 C

-10.2 C

0 W/m

0.00 mm

07:20

-10.2 C

996.4 hpa

89 %

0.0 km/h aus 116

1.6 km/h aus ENE

-11.7 C

-10.3 C

-10.2 C

-10.3 C

0 W/m

0.00 mm

07:25

-10.3 C

996.4 hpa

89 %

0.0 km/h aus 117

1.6 km/h aus ENE

-11.8 C

-10.4 C

-10.3 C

-10.4 C

0 W/m

0.00 mm

07:30

-10.4 C

996.4 hpa

89 %

1.6 km/h aus 116

4.8 km/h aus ENE

-11.9 C

-10.5 C

-10.4 C

-10.5 C

0 W/m

0.00 mm

07:35

-10.4 C

996.4 hpa

89 %

1.6 km/h aus 116

4.8 km/h aus ENE

-11.9 C

-10.5 C

-10.4 C

-10.5 C

0 W/m

0.00 mm

07:40

-10.3 C

996.4 hpa

89 %

1.6 km/h aus 117

4.8 km/h aus ENE

-11.8 C

-10.4 C

-10.3 C

-10.4 C

0 W/m

0.00 mm

07:45

-10.3 C

996.4 hpa

89 %

1.6 km/h aus 116

3.2 km/h aus ENE

-11.7 C

-10.3 C

-10.3 C

-10.3 C

0 W/m

0.00 mm

07:50

-10.3 C

996.4 hpa

89 %

0.0 km/h aus 117

3.2 km/h aus ENE

-11.7 C

-10.3 C

-10.3 C

-10.3 C

0 W/m

0.00 mm

07:55

-10.4 C

996.4 hpa

89 %

1.6 km/h aus 116

3.2 km/h aus ENE

-11.9 C

-10.4 C

-10.4 C

-10.4 C

0 W/m

0.00 mm

08:00

-10.4 C

996.2 hpa

89 %

1.6 km/h aus 117

3.2 km/h aus ENE

-11.9 C

-10.4 C

-10.4 C

-10.4 C

0 W/m

0.00 mm

08:05

-10.3 C

996.2 hpa

89 %

1.6 km/h aus 116

4.8 km/h aus ENE

-11.8 C

-10.4 C

-10.3 C

-10.4 C

0 W/m

0.00 mm

08:10

-10.4 C

996.2 hpa

89 %

1.6 km/h aus 116

3.2 km/h aus ENE

-11.9 C

-10.4 C

-10.4 C

-10.4 C

0 W/m

0.00 mm

08:15

-10.2 C

996.1 hpa

89 %

0.0 km/h aus 116

3.2 km/h aus ENE

-11.7 C

-10.3 C

-10.2 C

-10.3 C

0 W/m

0.00 mm

08:20

-10.0 C

996.1 hpa

90 %

1.6 km/h aus 117

6.4 km/h aus ENE

-11.3 C

-10.1 C

-10.0 C

-10.1 C

0 W/m

0.00 mm

08:25

-9.6 C

996.1 hpa

90 %

1.6 km/h aus 117

6.4 km/h aus ENE

-10.9 C

-9.7 C

-9.6 C

-9.7 C

0 W/m

0.00 mm

08:30

-9.2 C

996.0 hpa

90 %

3.2 km/h aus 117

4.8 km/h aus ENE

-10.5 C

-10.7 C

-10.7 C

-9.2 C

0 W/m

0.00 mm

08:35

-8.9 C

996.0 hpa

90 %

1.6 km/h aus 117

4.8 km/h aus ENE

-10.2 C

-8.9 C

-8.9 C

-8.9 C

0 W/m

0.00 mm

08:40

-8.7 C

996.0 hpa

90 %

1.6 km/h aus 115

4.8 km/h aus ENE

-10.1 C

-8.8 C

-8.7 C

-8.8 C

0 W/m

0.00 mm

08:45

-8.6 C

996.0 hpa

89 %

1.6 km/h aus 117

4.8 km/h aus ENE

-10.0 C

-8.6 C

-8.6 C

-8.6 C

0 W/m

0.00 mm

08:50

-8.3 C

996.0 hpa

89 %

1.6 km/h aus 117

4.8 km/h aus ENE

-9.8 C

-8.4 C

-8.3 C

-8.4 C

0 W/m

0.00 mm

08:55

-8.1 C

996.0 hpa

89 %

3.2 km/h aus 117

6.4 km/h aus ENE

-9.6 C

-9.6 C

-9.5 C

-8.2 C

0 W/m

0.00 mm

09:00

-7.9 C

995.7 hpa

88 %

3.2 km/h aus 117

6.4 km/h aus ENE

-9.5 C

-9.3 C

-9.2 C

-7.9 C

0 W/m

0.00 mm

09:05

-7.7 C

995.7 hpa

88 %

1.6 km/h aus 117

4.8 km/h aus ENE

-9.3 C

-7.7 C

-7.7 C

-7.7 C

0 W/m

0.00 mm

09:10

-7.4 C

995.7 hpa

87 %

1.6 km/h aus 117

3.2 km/h aus ENE

-9.2 C

-7.6 C

-7.4 C

-7.6 C

0 W/m

0.00 mm

09:15

-7.2 C

995.5 hpa

87 %

1.6 km/h aus 117

3.2 km/h aus ENE

-9.0 C

-7.3 C

-7.2 C

-7.3 C

0 W/m

0.00 mm

09:20

-7.0 C

995.5 hpa

86 %

0.0 km/h aus 117

3.2 km/h aus ENE

-8.9 C

-7.1 C

-7.0 C

-7.1 C

0 W/m

0.00 mm

09:25

-6.8 C

995.5 hpa

86 %

0.0 km/h aus 117

3.2 km/h aus ENE

-8.8 C

-6.9 C

-6.8 C

-6.9 C

0 W/m

0.00 mm

09:30

-6.5 C

995.4 hpa

85 %

0.0 km/h aus 117

3.2 km/h aus ENE

-8.6 C

-6.6 C

-6.5 C

-6.6 C

0 W/m

0.00 mm

09:35

-6.3 C

995.4 hpa

84 %

0.0 km/h aus 115

0.0 km/h aus ---

-8.5 C

-6.4 C

-6.3 C

-6.4 C

0 W/m

0.00 mm

09:40

-6.1 C

995.4 hpa

84 %

0.0 km/h aus 116

3.2 km/h aus ENE

-8.3 C

-6.2 C

-6.1 C

-6.2 C

0 W/m

0.00 mm

09:45

-5.7 C

995.4 hpa

83 %

1.6 km/h aus 117

4.8 km/h aus ENE

-8.1 C

-5.8 C

-5.7 C

-5.8 C

0 W/m

0.00 mm

09:50

-5.3 C

995.4 hpa

81 %

1.6 km/h aus 117

6.4 km/h aus ENE

-8.1 C

-5.4 C

-5.3 C

-5.4 C

0 W/m

0.00 mm

09:55

-5.1 C

995.4 hpa

80 %

1.6 km/h aus 117

6.4 km/h aus ENE

-8.0 C

-5.3 C

-5.1 C

-5.3 C

0 W/m

0.00 mm

10:00

-4.8 C

994.9 hpa

80 %

3.2 km/h aus 117

6.4 km/h aus ENE

-7.8 C

-6.1 C

-5.9 C

-5.0 C

0 W/m

0.00 mm

10:05

-4.5 C

994.9 hpa

79 %

3.2 km/h aus 116

6.4 km/h aus ENE

-7.6 C

-5.7 C

-5.5 C

-4.7 C

0 W/m

0.00 mm

10:10

-4.1 C

994.9 hpa

78 %

3.2 km/h aus 118

6.4 km/h aus NE

-7.4 C

-5.3 C

-5.1 C

-4.3 C

0 W/m

0.00 mm

10:15

-3.7 C

995.0 hpa

76 %

3.2 km/h aus 116

6.4 km/h aus NE

-7.3 C

-4.8 C

-4.6 C

-3.8 C

0 W/m

0.00 mm

10:20

-3.4 C

995.0 hpa

75 %

0.0 km/h aus 117

3.2 km/h aus ENE

-7.2 C

-3.6 C

-3.4 C

-3.6 C

0 W/m

0.00 mm

10:25

-3.3 C

995.0 hpa

74 %

3.2 km/h aus 117

8.0 km/h aus E

-7.3 C

-4.4 C

-4.2 C

-3.6 C

0 W/m

0.00 mm

10:30

-3.3 C

995.0 hpa

74 %

1.6 km/h aus 117

4.8 km/h aus SE

-7.3 C

-3.5 C

-3.3 C

-3.5 C

0 W/m

0.00 mm

10:35

-3.0 C

995.0 hpa

73 %

0.0 km/h aus 116

3.2 km/h aus SE

-7.2 C

-3.2 C

-3.0 C

-3.2 C

0 W/m

0.00 mm

10:40

-2.5 C

995.0 hpa

73 %

1.6 km/h aus 117

6.4 km/h aus ESE

-6.7 C

-2.7 C

-2.5 C

-2.7 C

0 W/m

0.00 mm

10:45

-2.1 C

995.0 hpa

70 %

1.6 km/h aus 117

4.8 km/h aus ESE

-6.8 C

-2.3 C

-2.1 C

-2.3 C

0 W/m

0.00 mm

10:50

-2.6 C

995.0 hpa

71 %

0.0 km/h aus 116

3.2 km/h aus ESE

-7.1 C

-2.8 C

-2.6 C

-2.8 C

0 W/m

0.00 mm

10:55

-2.8 C

995.0 hpa

72 %

0.0 km/h aus 116

3.2 km/h aus ESE

-7.2 C

-3.1 C

-2.8 C

-3.1 C

0 W/m

0.00 mm

11:00

-2.9 C

995.0 hpa

72 %

1.6 km/h aus 117

4.8 km/h aus ESE

-7.3 C

-3.2 C

-2.9 C

-3.2 C

0 W/m

0.00 mm

11:05

-3.2 C

995.0 hpa

72 %

0.0 km/h aus 117

3.2 km/h aus ESE

-7.6 C

-3.4 C

-3.2 C

-3.4 C

0 W/m

0.00 mm

11:10

-2.8 C

995.0 hpa

72 %

1.6 km/h aus 117

3.2 km/h aus ESE

-7.1 C

-3.0 C

-2.8 C

-3.0 C

0 W/m

0.00 mm

11:15

-2.3 C

994.9 hpa

71 %

0.0 km/h aus 117

4.8 km/h aus ESE

-6.9 C

-2.6 C

-2.3 C

-2.6 C

0 W/m

0.00 mm

11:20

-1.6 C

994.9 hpa

71 %

1.6 km/h aus 117

4.8 km/h aus ESE

-6.2 C

-1.9 C

-1.6 C

-1.9 C

0 W/m

0.00 mm

11:25

-1.2 C

994.9 hpa

69 %

0.0 km/h aus 117

1.6 km/h aus ESE

-6.1 C

-1.4 C

-1.2 C

-1.4 C

0 W/m

0.00 mm

11:30

-0.6 C

994.7 hpa

67 %

1.6 km/h aus 117

6.4 km/h aus ESE

-6.0 C

-0.9 C

-0.6 C

-0.9 C

0 W/m

0.00 mm

11:35

-0.3 C

994.7 hpa

66 %

1.6 km/h aus 117

6.4 km/h aus ESE

-5.9 C

-0.6 C

-0.3 C

-0.6 C

0 W/m

0.00 mm

11:40

-0.2 C

994.7 hpa

66 %

1.6 km/h aus 117

4.8 km/h aus ESE

-5.8 C

-0.5 C

-0.2 C

-0.5 C

0 W/m

0.00 mm

11:45

0.2 C

994.5 hpa

66 %

1.6 km/h aus 117

4.8 km/h aus ESE

-5.4 C

-0.1 C

0.2 C

-0.1 C

0 W/m

0.00 mm

11:50

0.6 C

994.5 hpa

65 %

1.6 km/h aus 117

4.8 km/h aus ESE

-5.3 C

0.2 C

0.6 C

0.2 C

0 W/m

0.00 mm

11:55

0.8 C

994.5 hpa

64 %

1.6 km/h aus 117

8.0 km/h aus ESE

-5.3 C

0.4 C

0.8 C

0.4 C

0 W/m

0.00 mm

12:00

0.7 C

994.4 hpa

64 %

3.2 km/h aus 116

8.0 km/h aus ENE

-5.3 C

-0.1 C

0.2 C

0.4 C

0 W/m

0.00 mm

12:05

0.8 C

994.4 hpa

64 %

3.2 km/h aus 116

6.4 km/h aus ENE

-5.3 C

-0.1 C

0.3 C

0.4 C

0 W/m

0.00 mm

12:10

0.8 C

994.4 hpa

63 %

3.2 km/h aus 116

9.7 km/h aus ENE

-5.4 C

0.0 C

0.3 C

0.5 C

0 W/m

0.00 mm

12:15

1.0 C

994.4 hpa

64 %

3.2 km/h aus 116

6.4 km/h aus ENE

-5.1 C

0.2 C

0.5 C

0.7 C

0 W/m

0.00 mm

12:20

0.8 C

994.4 hpa

64 %

1.6 km/h aus 116

8.0 km/h aus E

-5.2 C

0.5 C

0.8 C

0.5 C

0 W/m

0.00 mm

12:25

0.8 C

994.4 hpa

65 %

3.2 km/h aus 117

9.7 km/h aus E

-5.1 C

-0.1 C

0.3 C

0.4 C

0 W/m

0.00 mm

12:30

0.9 C

994.0 hpa

65 %

3.2 km/h aus 117

8.0 km/h aus E

-4.9 C

0.1 C

0.4 C

0.6 C

0 W/m

0.00 mm

12:35

1.1 C

994.0 hpa

64 %

3.2 km/h aus 115

6.4 km/h aus E

-4.9 C

0.3 C

0.7 C

0.8 C

0 W/m

0.00 mm

12:40

1.1 C

994.0 hpa

64 %

1.6 km/h aus 115

9.7 km/h aus E

-4.9 C

0.8 C

1.1 C

0.8 C

0 W/m

0.00 mm

12:45

1.1 C

994.1 hpa

64 %

1.6 km/h aus 117

6.4 km/h aus E

-4.9 C

0.8 C

1.1 C

0.8 C

0 W/m

0.00 mm

12:50

1.3 C

994.1 hpa

65 %

1.6 km/h aus 117

4.8 km/h aus E

-4.5 C

1.0 C

1.3 C

1.0 C

0 W/m

0.00 mm

12:55

1.5 C

994.1 hpa

65 %

1.6 km/h aus 117

6.4 km/h aus E

-4.4 C

1.2 C

1.5 C

1.2 C

0 W/m

0.00 mm

13:00

1.7 C

993.9 hpa

64 %

3.2 km/h aus 117

6.4 km/h aus E

-4.4 C

1.0 C

1.3 C

1.4 C

0 W/m

0.00 mm

13:05

1.8 C

993.9 hpa

63 %

3.2 km/h aus 116

9.7 km/h aus E

-4.5 C

1.0 C

1.4 C

1.4 C

0 W/m

0.00 mm

13:10

1.9 C

993.9 hpa

62 %

1.6 km/h aus 117

6.4 km/h aus E

-4.6 C

1.5 C

1.9 C

1.5 C

0 W/m

0.00 mm

13:15

2.0 C

993.9 hpa

63 %

3.2 km/h aus 117

8.0 km/h aus ENE

-4.3 C

1.2 C

1.6 C

1.6 C

0 W/m

0.00 mm

13:20

2.2 C

993.9 hpa

62 %

3.2 km/h aus 117

9.7 km/h aus NE

-4.4 C

1.4 C

1.8 C

1.8 C

0 W/m

0.00 mm

13:25

2.2 C

993.9 hpa

62 %

4.8 km/h aus 118

8.0 km/h aus NE

-4.3 C

0.6 C

1.0 C

1.8 C

0 W/m

0.00 mm

13:30

2.3 C

993.6 hpa

63 %

3.2 km/h aus 116

6.4 km/h aus NE

-4.0 C

1.6 C

1.9 C

1.9 C

0 W/m

0.00 mm

13:35

2.4 C

993.6 hpa

62 %

3.2 km/h aus 117

8.0 km/h aus NE

-4.1 C

1.7 C

2.1 C

2.0 C

0 W/m

0.00 mm

13:40

2.4 C

993.6 hpa

62 %

1.6 km/h aus 117

4.8 km/h aus NE

-4.1 C

2.0 C

2.4 C

2.0 C

0 W/m

0.00 mm

13:45

2.6 C

993.5 hpa

61 %

4.8 km/h aus 116

8.0 km/h aus ENE

-4.2 C

0.9 C

1.4 C

2.1 C

0 W/m

0.00 mm

13:50

2.6 C

993.5 hpa

62 %

3.2 km/h aus 117

8.0 km/h aus ENE

-4.0 C

1.8 C

2.2 C

2.1 C

0 W/m

0.00 mm

13:55

2.6 C

993.5 hpa

62 %

3.2 km/h aus 117

8.0 km/h aus ENE

-3.9 C

1.8 C

2.3 C

2.2 C

0 W/m

0.00 mm

14:00

2.6 C

993.4 hpa

61 %

1.6 km/h aus 117

4.8 km/h aus ENE

-4.2 C

2.2 C

2.6 C

2.2 C

0 W/m

0.00 mm

14:05

2.6 C

993.4 hpa

63 %

1.6 km/h aus 117

4.8 km/h aus ENE

-3.7 C

2.2 C

2.6 C

2.2 C

0 W/m

0.00 mm

14:10

2.9 C

993.4 hpa

61 %

1.6 km/h aus 116

6.4 km/h aus ENE

-3.9 C

2.4 C

2.9 C

2.4 C

0 W/m

0.00 mm

14:15

2.9 C

993.4 hpa

61 %

1.6 km/h aus 116

4.8 km/h aus ENE

-3.8 C

2.5 C

2.9 C

2.5 C

0 W/m

0.00 mm

14:20

2.9 C

993.4 hpa

62 %

3.2 km/h aus 116

8.0 km/h aus ENE

-3.6 C

2.2 C

2.7 C

2.5 C

0 W/m

0.00 mm

14:25

3.0 C

993.4 hpa

63 %

3.2 km/h aus 117

8.0 km/h aus ENE

-3.4 C

2.3 C

2.7 C

2.6 C

0 W/m

0.00 mm

14:30

3.0 C

993.3 hpa

63 %

1.6 km/h aus 117

4.8 km/h aus ENE

-3.4 C

2.6 C

3.0 C

2.6 C

0 W/m

0.00 mm

14:35

3.0 C

993.3 hpa

63 %

1.6 km/h aus 117

6.4 km/h aus ENE

-3.4 C

2.6 C

3.0 C

2.6 C

0 W/m

0.00 mm

14:40

3.3 C

993.3 hpa

61 %

3.2 km/h aus 117

6.4 km/h aus ENE

-3.5 C

2.7 C

3.1 C

2.9 C

0 W/m

0.00 mm

14:45

3.2 C

993.2 hpa

61 %

3.2 km/h aus 116

6.4 km/h aus ENE

-3.6 C

2.5 C

2.9 C

2.8 C

0 W/m

0.00 mm

14:50

3.1 C

993.2 hpa

61 %

3.2 km/h aus 117

6.4 km/h aus ENE

-3.7 C

2.3 C

2.8 C

2.6 C

0 W/m

0.00 mm

14:55

3.0 C

993.2 hpa

62 %

1.6 km/h aus 116

4.8 km/h aus ENE

-3.6 C

2.6 C

3.0 C

2.6 C

0 W/m

0.00 mm

15:00

3.1 C

993.3 hpa

63 %

1.6 km/h aus 117

4.8 km/h aus ENE

-3.3 C

2.7 C

3.1 C

2.7 C

0 W/m

0.00 mm

15:05

3.0 C

993.3 hpa

64 %

0.0 km/h aus 117

1.6 km/h aus ENE

-3.2 C

2.6 C

3.0 C

2.6 C

0 W/m

0.00 mm

15:10

3.0 C

993.3 hpa

62 %

0.0 km/h aus 117

3.2 km/h aus ENE

-3.6 C

2.6 C

3.0 C

2.6 C

0 W/m

0.00 mm

15:15

3.0 C

993.1 hpa

63 %

1.6 km/h aus 117

4.8 km/h aus ENE

-3.4 C

2.6 C

3.0 C

2.6 C

0 W/m

0.00 mm

15:20

3.1 C

993.1 hpa

62 %

1.6 km/h aus 116

6.4 km/h aus ENE

-3.5 C

2.6 C

3.1 C

2.6 C

0 W/m

0.00 mm

15:25

2.7 C

993.1 hpa

66 %

4.8 km/h aus 117

8.0 km/h aus ENE

-3.0 C

1.2 C

1.6 C

2.3 C

0 W/m

0.00 mm

15:30

2.4 C

992.9 hpa

68 %

3.2 km/h aus 116

8.0 km/h aus ENE

-2.9 C

1.7 C

2.1 C

2.1 C

0 W/m

0.00 mm

15:35

2.3 C

992.9 hpa

69 %

3.2 km/h aus 116

6.4 km/h aus NE

-2.8 C

1.7 C

2.0 C

2.0 C

0 W/m

0.00 mm

15:40

2.4 C

992.9 hpa

69 %

3.2 km/h aus 117

6.4 km/h aus NE

-2.7 C

1.7 C

2.1 C

2.1 C

0 W/m

0.00 mm

15:45

2.4 C

992.9 hpa

67 %

4.8 km/h aus 117

8.0 km/h aus NE

-3.1 C

0.8 C

1.2 C

2.0 C

0 W/m

0.00 mm

15:50

2.3 C

992.9 hpa

67 %

3.2 km/h aus 117

8.0 km/h aus NE

-3.2 C

1.6 C

2.0 C

1.9 C

0 W/m

0.00 mm

15:55

2.2 C

992.9 hpa

67 %

4.8 km/h aus 117

8.0 km/h aus NE

-3.3 C

0.6 C

1.0 C

1.8 C

0 W/m

0.00 mm

16:00

2.1 C

992.8 hpa

68 %

3.2 km/h aus 117

6.4 km/h aus NE

-3.2 C

1.3 C

1.7 C

1.7 C

0 W/m

0.00 mm

16:05

2.0 C

992.8 hpa

68 %

1.6 km/h aus 117

4.8 km/h aus NE

-3.3 C

1.7 C

2.0 C

1.7 C

0 W/m

0.00 mm

16:10

1.9 C

992.8 hpa

68 %

3.2 km/h aus 117

6.4 km/h aus NE

-3.4 C

1.2 C

1.5 C

1.6 C

0 W/m

0.00 mm

16:15

1.8 C

992.7 hpa

69 %

3.2 km/h aus 117

6.4 km/h aus NE

-3.3 C

1.1 C

1.4 C

1.5 C

0 W/m

0.00 mm

16:20

1.7 C

992.7 hpa

69 %

4.8 km/h aus 117

9.7 km/h aus NE

-3.4 C

0.2 C

0.4 C

1.4 C

0 W/m

0.00 mm

16:25

1.6 C

992.7 hpa

69 %

4.8 km/h aus 117

8.0 km/h aus NE

-3.5 C

0.1 C

0.3 C

1.3 C

0 W/m

0.00 mm

16:30

1.4 C

992.6 hpa

70 %

4.8 km/h aus 117

8.0 km/h aus NE

-3.5 C

-0.2 C

0.1 C

1.1 C

0 W/m

0.00 mm

16:35

1.3 C

992.6 hpa

71 %

4.8 km/h aus 117

9.7 km/h aus NE

-3.4 C

-0.3 C

0.0 C

1.1 C

0 W/m

0.00 mm

16:40

1.2 C

992.6 hpa

71 %

6.4 km/h aus 117

9.7 km/h aus NNE

-3.5 C

-1.1 C

-0.8 C

0.9 C

0 W/m

0.00 mm

16:45

1.1 C

992.8 hpa

72 %

6.4 km/h aus 117

11.3 km/h aus NNE

-3.4 C

-1.2 C

-0.9 C

0.8 C

0 W/m

0.00 mm

16:50

1.0 C

992.8 hpa

72 %

6.4 km/h aus 116

9.7 km/h aus NNE

-3.5 C

-1.3 C

-1.0 C

0.7 C

0 W/m

0.00 mm

16:55

0.8 C

992.8 hpa

73 %

4.8 km/h aus 117

8.0 km/h aus NNE

-3.5 C

-0.8 C

-0.6 C

0.6 C

0 W/m

0.00 mm

17:00

0.7 C

992.8 hpa

73 %

4.8 km/h aus 117

8.0 km/h aus NNE

-3.6 C

-0.9 C

-0.7 C

0.4 C

0 W/m

0.00 mm

17:05

0.6 C

992.8 hpa

73 %

4.8 km/h aus 117

9.7 km/h aus NNE

-3.7 C

-1.0 C

-0.8 C

0.4 C

0 W/m

0.00 mm

17:10

0.6 C

992.8 hpa

74 %

4.8 km/h aus 116

9.7 km/h aus NNE

-3.5 C

-1.1 C

-0.9 C

0.3 C

0 W/m

0.00 mm

17:15

0.5 C

992.5 hpa

74 %

4.8 km/h aus 116

9.7 km/h aus NNE

-3.6 C

-1.2 C

-0.9 C

0.3 C

0 W/m

0.00 mm

17:20

0.4 C

992.5 hpa

74 %

3.2 km/h aus 116

6.4 km/h aus NNE

-3.7 C

-0.3 C

-0.1 C

0.2 C

0 W/m

0.00 mm

17:25

0.3 C

992.5 hpa

74 %

1.6 km/h aus 117

4.8 km/h aus NNE

-3.8 C

0.1 C

0.3 C

0.1 C

0 W/m

0.00 mm

17:30

0.3 C

992.8 hpa

75 %

1.6 km/h aus 117

4.8 km/h aus NNE

-3.6 C

0.1 C

0.3 C

0.1 C

0 W/m

0.00 mm

17:35

0.3 C

992.8 hpa

75 %

1.6 km/h aus 117

4.8 km/h aus NNE

-3.6 C

0.1 C

0.3 C

0.1 C

0 W/m

0.00 mm

17:40

0.2 C

992.8 hpa

75 %

0.0 km/h aus 118

1.6 km/h aus NNE

-3.7 C

0.0 C

0.2 C

0.0 C

0 W/m

0.00 mm

17:45

0.2 C

992.9 hpa

75 %

0.0 km/h aus 116

0.0 km/h aus ---

-3.7 C

0.0 C

0.2 C

0.0 C

0 W/m

0.00 mm

17:50

0.2 C

992.9 hpa

75 %

0.0 km/h aus 116

0.0 km/h aus ---

-3.7 C

0.0 C

0.2 C

0.0 C

0 W/m

0.00 mm

17:55

0.2 C

992.9 hpa

75 %

0.0 km/h aus 116

1.6 km/h aus NNE

-3.7 C

0.0 C

0.2 C

0.0 C

0 W/m

0.00 mm

18:00

0.2 C

993.1 hpa

75 %

0.0 km/h aus 115

1.6 km/h aus NNE

-3.7 C

-0.1 C

0.2 C

-0.1 C

0 W/m

0.00 mm

18:05

0.1 C

993.1 hpa

76 %

0.0 km/h aus 117

0.0 km/h aus ---

-3.6 C

-0.1 C

0.1 C

-0.1 C

0 W/m

0.00 mm

18:10

0.1 C

993.1 hpa

75 %

0.0 km/h aus 116

0.0 km/h aus ---

-3.9 C

-0.2 C

0.1 C

-0.2 C

0 W/m

0.00 mm

18:15

0.1 C

993.3 hpa

76 %

0.0 km/h aus 117

1.6 km/h aus NNE

-3.7 C

-0.2 C

0.1 C

-0.2 C

0 W/m

0.00 mm

18:20

0.0 C

993.3 hpa

77 %

1.6 km/h aus 117

4.8 km/h aus NNE

-3.6 C

-0.2 C

0.0 C

-0.2 C

0 W/m

0.00 mm

18:25

-0.1 C

993.3 hpa

77 %

0.0 km/h aus 116

3.2 km/h aus NNE

-3.6 C

-0.3 C

-0.1 C

-0.3 C

0 W/m

0.00 mm

18:30

-0.1 C

993.0 hpa

77 %

1.6 km/h aus 117

6.4 km/h aus NNE

-3.7 C

-0.3 C

-0.1 C

-0.3 C

0 W/m

0.00 mm

18:35

-0.2 C

993.0 hpa

77 %

3.2 km/h aus 116

6.4 km/h aus NNE

-3.7 C

-1.0 C

-0.8 C

-0.4 C

0 W/m

0.00 mm

18:40

-0.2 C

993.0 hpa

77 %

3.2 km/h aus 116

6.4 km/h aus NNE

-3.7 C

-1.0 C

-0.8 C

-0.4 C

0 W/m

0.00 mm

18:45

-0.2 C

993.0 hpa

77 %

1.6 km/h aus 117

6.4 km/h aus NNE

-3.8 C

-0.4 C

-0.2 C

-0.4 C

0 W/m

0.00 mm

18:50

-0.3 C

993.0 hpa

77 %

3.2 km/h aus 116

6.4 km/h aus NNE

-3.8 C

-1.1 C

-0.9 C

-0.5 C

0 W/m

0.00 mm

18:55

-0.3 C

993.0 hpa

77 %

3.2 km/h aus 116

6.4 km/h aus NNE

-3.8 C

-1.1 C

-0.9 C

-0.5 C

0 W/m

0.00 mm

19:00

-0.3 C

992.9 hpa

77 %

3.2 km/h aus 117

6.4 km/h aus NNE

-3.8 C

-1.1 C

-0.9 C

-0.5 C

0 W/m

0.00 mm

19:05

-0.3 C

992.9 hpa

77 %

4.8 km/h aus 117

6.4 km/h aus NNE

-3.8 C

-2.0 C

-1.8 C

-0.5 C

0 W/m

0.00 mm

19:10

-0.2 C

992.9 hpa

77 %

3.2 km/h aus 116

8.0 km/h aus NNE

-3.8 C

-1.1 C

-0.8 C

-0.4 C

0 W/m

0.00 mm

19:15

-0.2 C

992.8 hpa

77 %

3.2 km/h aus 116

8.0 km/h aus NNE

-3.8 C

-1.1 C

-0.8 C

-0.4 C

0 W/m

0.00 mm

19:20

-0.2 C

992.8 hpa

76 %

3.2 km/h aus 117

4.8 km/h aus NNE

-3.9 C

-1.0 C

-0.8 C

-0.4 C

0 W/m

0.00 mm

19:25

-0.2 C

992.8 hpa

77 %

3.2 km/h aus 117

6.4 km/h aus NNE

-3.7 C

-1.0 C

-0.8 C

-0.4 C

0 W/m

0.00 mm

19:30

-0.2 C

992.7 hpa

77 %

4.8 km/h aus 116

6.4 km/h aus NNE

-3.8 C

-1.9 C

-1.7 C

-0.4 C

0 W/m

0.00 mm

19:35

-0.2 C

992.7 hpa

77 %

3.2 km/h aus 117

6.4 km/h aus NNE

-3.8 C

-1.1 C

-0.8 C

-0.4 C

0 W/m

0.00 mm

19:40

-0.3 C

992.7 hpa

78 %

4.8 km/h aus 116

8.0 km/h aus NNE

-3.7 C

-1.9 C

-1.8 C

-0.4 C

0 W/m

0.00 mm

19:45

-0.3 C

992.8 hpa

78 %

1.6 km/h aus 116

6.4 km/h aus NNE

-3.7 C

-0.4 C

-0.3 C

-0.4 C

0 W/m

0.00 mm

19:50

-0.3 C

992.8 hpa

78 %

1.6 km/h aus 115

4.8 km/h aus NNE

-3.7 C

-0.4 C

-0.3 C

-0.4 C

0 W/m

0.00 mm

19:55

-0.3 C

992.8 hpa

78 %

0.0 km/h aus 117

3.2 km/h aus NNE

-3.7 C

-0.4 C

-0.3 C

-0.4 C

0 W/m

0.00 mm

20:00

-0.3 C

992.9 hpa

78 %

1.6 km/h aus 117

4.8 km/h aus NNE

-3.7 C

-0.4 C

-0.3 C

-0.4 C

0 W/m

0.00 mm

20:05

-0.3 C

992.9 hpa

78 %

0.0 km/h aus 117

3.2 km/h aus NNE

-3.7 C

-0.4 C

-0.3 C

-0.4 C

0 W/m

0.00 mm

20:10

-0.3 C

992.9 hpa

78 %

1.6 km/h aus 117

4.8 km/h aus NNE

-3.7 C

-0.4 C

-0.3 C

-0.4 C

0 W/m

0.00 mm

20:15

-0.2 C

992.8 hpa

78 %

1.6 km/h aus 117

4.8 km/h aus NNE

-3.6 C

-0.4 C

-0.2 C

-0.4 C

0 W/m

0.00 mm

20:20

-0.3 C

992.8 hpa

78 %

1.6 km/h aus 117

4.8 km/h aus NNE

-3.7 C

-0.4 C

-0.3 C

-0.4 C

0 W/m

0.00 mm

20:25

-0.3 C

992.8 hpa

78 %

3.2 km/h aus 117

8.0 km/h aus NNE

-3.7 C

-1.1 C

-0.9 C

-0.5 C

0 W/m

0.00 mm

20:30

-0.3 C

992.7 hpa

78 %

3.2 km/h aus 117

8.0 km/h aus NNE

-3.7 C

-1.1 C

-0.9 C

-0.5 C

0 W/m

0.00 mm

20:35

-0.3 C

992.7 hpa

78 %

6.4 km/h aus 117

11.3 km/h aus NE

-3.7 C

-2.7 C

-2.5 C

-0.4 C

0 W/m

0.00 mm

20:40

-0.2 C

992.7 hpa

79 %

4.8 km/h aus 116

11.3 km/h aus NE

-3.4 C

-1.9 C

-1.7 C

-0.4 C

0 W/m

0.00 mm

20:45

-0.2 C

992.8 hpa

80 %

3.2 km/h aus 116

6.4 km/h aus NE

-3.2 C

-0.9 C

-0.8 C

-0.3 C

0 W/m

0.00 mm

20:50

-0.2 C

992.8 hpa

80 %

1.6 km/h aus 117

4.8 km/h aus NE

-3.2 C

-0.3 C

-0.2 C

-0.3 C

0 W/m

0.00 mm

20:55

-0.2 C

992.8 hpa

81 %

1.6 km/h aus 117

4.8 km/h aus NE

-3.0 C

-0.3 C

-0.2 C

-0.3 C

0 W/m

0.00 mm

21:00

-0.1 C

992.8 hpa

81 %

0.0 km/h aus 117

3.2 km/h aus NE

-3.0 C

-0.3 C

-0.1 C

-0.3 C

0 W/m

0.00 mm

21:05

-0.1 C

992.8 hpa

81 %

1.6 km/h aus 116

4.8 km/h aus NE

-2.9 C

-0.2 C

-0.1 C

-0.2 C

0 W/m

0.00 mm

21:10

0.0 C

992.8 hpa

82 %

1.6 km/h aus 116

4.8 km/h aus NE

-2.7 C

-0.2 C

0.0 C

-0.2 C

0 W/m

0.00 mm

21:15

0.0 C

992.7 hpa

82 %

1.6 km/h aus 117

4.8 km/h aus NE

-2.7 C

-0.2 C

0.0 C

-0.2 C

0 W/m

0.00 mm

21:20

-0.1 C

992.7 hpa

83 %

3.2 km/h aus 117

4.8 km/h aus NE

-2.6 C

-0.7 C

-0.6 C

-0.2 C

0 W/m

0.00 mm

21:25

-0.1 C

992.7 hpa

84 %

4.8 km/h aus 117

6.4 km/h aus NE

-2.4 C

-1.7 C

-1.6 C

-0.2 C

0 W/m

0.00 mm

21:30

-0.1 C

992.5 hpa

84 %

4.8 km/h aus 116

8.0 km/h aus NE

-2.5 C

-1.7 C

-1.6 C

-0.2 C

0 W/m

0.00 mm

21:35

-0.1 C

992.5 hpa

84 %

3.2 km/h aus 117

6.4 km/h aus NE

-2.5 C

-0.8 C

-0.7 C

-0.2 C

0 W/m

0.00 mm

21:40

-0.2 C

992.5 hpa

85 %

3.2 km/h aus 116

8.0 km/h aus NE

-2.4 C

-0.9 C

-0.8 C

-0.3 C

0 W/m

0.00 mm

21:45

-0.1 C

992.4 hpa

85 %

4.8 km/h aus 116

8.0 km/h aus NE

-2.3 C

-1.7 C

-1.6 C

-0.2 C

0 W/m

0.00 mm

21:50

-0.1 C

992.4 hpa

84 %

3.2 km/h aus 117

8.0 km/h aus NE

-2.4 C

-0.7 C

-0.6 C

-0.2 C

0 W/m

0.00 mm

21:55

-0.1 C

992.4 hpa

84 %

1.6 km/h aus 118

4.8 km/h aus NE

-2.4 C

-0.2 C

-0.1 C

-0.2 C

0 W/m

0.00 mm

22:00

-0.1 C

992.4 hpa

84 %

1.6 km/h aus 117

4.8 km/h aus NE

-2.5 C

-0.2 C

-0.1 C

-0.2 C

0 W/m

0.00 mm

22:05

-0.1 C

992.4 hpa

85 %

1.6 km/h aus 117

4.8 km/h aus NE

-2.3 C

-0.2 C

-0.1 C

-0.2 C

0 W/m

0.00 mm

22:10

-0.1 C

992.4 hpa

85 %

3.2 km/h aus 117

6.4 km/h aus NE

-2.3 C

-0.7 C

-0.6 C

-0.2 C

0 W/m

0.00 mm

22:15

-0.1 C

992.3 hpa

85 %

3.2 km/h aus 115

8.0 km/h aus NE

-2.3 C

-0.7 C

-0.6 C

-0.2 C

0 W/m

0.00 mm

22:20

-0.1 C

992.3 hpa

84 %

3.2 km/h aus 117

8.0 km/h aus NE

-2.4 C

-0.7 C

-0.6 C

-0.2 C

0 W/m

0.00 mm

22:25

-0.1 C

992.3 hpa

84 %

3.2 km/h aus 117

8.0 km/h aus NE

-2.4 C

-0.7 C

-0.6 C

-0.2 C

0 W/m

0.00 mm

22:30

0.0 C

992.4 hpa

83 %

1.6 km/h aus 117

4.8 km/h aus NE

-2.5 C

-0.1 C

0.0 C

-0.1 C

0 W/m

0.00 mm

22:35

0.1 C

992.4 hpa

83 %

1.6 km/h aus 117

3.2 km/h aus NE

-2.5 C

-0.1 C

0.1 C

-0.1 C

0 W/m

0.00 mm

22:40

0.1 C

992.4 hpa

84 %

1.6 km/h aus 115

4.8 km/h aus NE

-2.3 C

0.0 C

0.1 C

0.0 C

0 W/m

0.00 mm

22:45

0.2 C

992.4 hpa

83 %

3.2 km/h aus 117

6.4 km/h aus NE

-2.4 C

-0.5 C

-0.4 C

0.1 C

0 W/m

0.00 mm

22:50

0.2 C

992.4 hpa

83 %

3.2 km/h aus 117

4.8 km/h aus NE

-2.3 C

-0.4 C

-0.3 C

0.1 C

0 W/m

0.00 mm

22:55

0.5 C

992.4 hpa

84 %

4.8 km/h aus 117

14.5 km/h aus E

-1.9 C

-1.1 C

-0.9 C

0.4 C

0 W/m

0.00 mm

23:00

0.7 C

992.3 hpa

83 %

6.4 km/h aus 118

16.1 km/h aus ENE

-1.8 C

-1.5 C

-1.3 C

0.6 C

0 W/m

0.00 mm

23:05

1.0 C

992.3 hpa

83 %

8.0 km/h aus 116

20.9 km/h aus NNE

-1.6 C

-1.7 C

-1.6 C

0.8 C

0 W/m

0.00 mm

23:10

1.2 C

992.3 hpa

83 %

6.4 km/h aus 116

14.5 km/h aus ENE

-1.3 C

-0.9 C

-0.8 C

1.1 C

0 W/m

0.00 mm

23:15

1.3 C

992.1 hpa

83 %

4.8 km/h aus 116

12.9 km/h aus E

-1.2 C

-0.2 C

0.0 C

1.2 C

0 W/m

0.00 mm

23:20

1.3 C

992.1 hpa

83 %

4.8 km/h aus 117

9.7 km/h aus ENE

-1.2 C

-0.2 C

0.0 C

1.2 C

0 W/m

0.00 mm

23:25

1.3 C

992.1 hpa

83 %

6.4 km/h aus 116

11.3 km/h aus E

-1.2 C

-0.8 C

-0.7 C

1.2 C

0 W/m

0.00 mm

23:30

1.4 C

992.2 hpa

83 %

6.4 km/h aus 116

12.9 km/h aus ENE

-1.1 C

-0.7 C

-0.5 C

1.3 C

0 W/m

0.00 mm

23:35

1.5 C

992.2 hpa

83 %

6.4 km/h aus 117

12.9 km/h aus E

-1.1 C

-0.6 C

-0.4 C

1.3 C

0 W/m

0.00 mm

23:40

1.6 C

992.2 hpa

83 %

4.8 km/h aus 117

8.0 km/h aus E

-1.0 C

0.1 C

0.3 C

1.4 C

0 W/m

0.00 mm

23:45

1.6 C

992.2 hpa

83 %

4.8 km/h aus 117

8.0 km/h aus E

-1.0 C

0.2 C

0.3 C

1.5 C

0 W/m

0.00 mm

23:50

1.7 C

992.2 hpa

83 %

6.4 km/h aus 117

14.5 km/h aus ENE

-0.9 C

-0.4 C

-0.3 C

1.6 C

0 W/m

0.00 mm

23:55

1.6 C

992.2 hpa

83 %

8.0 km/h aus 117

14.5 km/h aus ENE

-1.0 C

-0.9 C

-0.8 C

1.5 C

0 W/m

0.00 mm